Hourly Data Report for April 25, 2004

SHERBROOKE A
QUEBEC

45°26'00.000" N
71°41'00.000" W
241.40 m
7028124
71610
YSC

Download Data

Hourly Data (April 2004)
Hourly Data Report for April 25, 2004
TIME
LST
Temp Definition
°C
Dew Point Definition
°C
Rel Hum Definition
%
Precip. Amount Definition
mm

Wind Dir Definition
10's deg

Wind Spd Definition
km/h
Visibility Definition
km
Stn Press Definition
kPa
Hmdx Definition


Wind Chill Definition


Weather Definition


00:00 -2.5 -14.9 38   34 11 15.0 99.83   -7  
01:00 -3.0 -15.0 39   33 13 15.0 99.81   -8  
02:00 -3.7 -15.4 40   32 15 15.0 99.83   -9  
03:00 -4.8 -15.4 43   32 13 15.0 99.93   -10  
04:00 -5.1 -15.4 44   31 13 15.0 100.01   -10  
05:00 -5.4 -15.7 44   9 6 15.0 100.09   -8  
06:00 -3.9 -15.0 42   4 6 15.0 100.10   -7  
07:00 -3.4 -17.3 33   32 6 24.1 100.11   -6 Mainly Clear
08:00 -2.4 -16.4 33   24 7 24.1 100.12   -5 Mainly Clear
09:00 -0.8 -16.8 29   30 4 24.1 100.08   -2 Mainly Clear
10:00 1.1 -15.6 28   35 4 24.1 100.01     Mostly Cloudy
11:00 3.1 -14.5 26   23 4 24.1 99.92     Mostly Cloudy
12:00 4.2 -15.5 22   14 4 24.1 99.82     Mostly Cloudy
13:00 5.5 -14.9 21   7 6 24.1 99.74     Mostly Cloudy
14:00 7.5 -13.4 21   10 9 24.1 99.65     Mostly Cloudy
15:00 7.9 -13.4 20     0 24.1 99.50     Mostly Cloudy
16:00 8.0 -11.3 24   6 11 24.1 99.35     Mostly Cloudy
17:00 7.5 -10.2 27   5 9 15.0 99.25      
18:00 6.9 -10.7 27   5 7 15.0 99.13      
19:00 6.1 -9.8 31   7 7 15.0 99.09      
20:00 5.7 -7.0 40   10 11 15.0 98.98     Rain
21:00 4.9 -1.5 63   16 9 15.0 98.91     Rain
22:00 3.6 0.9 82   32 4 8.0 99.00     Rain
23:00 3.1 1.7 91   12 9 6.4 98.88     Rain

Notes on Data Quality.

Legend

  • E = Estimated
  • M = Missing
  • NA = Not Available*
  • [empty] = Indicates an unobserved value
Date modified: